User: anonymous   Login
Location: Unspecified
(0.0000°N, 0.0000°E)
Time: 20:15:11
(UTC+00:00)
Language:

IRIDIUM 131 - Orbit

View from above orbital plane
View from above orbital plane
View from above satellite
View from above satellite

Ground track
Ground track

The orbit is defined by the following mean orbital elements,

1 43079U          26145.58462002 +.00000000 +00000-0 +12041-4 0 00003
2 43079  86.3961 331.6290 0002186  90.8436 269.3010 14.34217869    05
Epoch (UTC): 25 May 2026 14:01:51
Eccentricity: 0.0002186
inclination: 86.3961°
perigee height: 776 km
apogee height: 779 km
right ascension of ascending node: 331.6290°
argument of perigee: 90.8436°
revolutions per day: 14.34217869
mean anomaly at epoch: 269.3010°

The dashed part of the orbit path shows where the satellite is in the earth's shadow,  

DLR